Zurück zum Katalog

SL-8 DEB *

AktivVLEO
NORAD 14818·DEBRIS·🇷🇺 Russia

Gestartet Jul 1, 1977 von Plesetsk Cosmodrome

Loading…

Nächste Überflüge (nächste 24 Stunden)

TLE

AktuellSource: Space-Track

Epoche: Sep 14, 2026, 09:17 UTC

1 14818U 77059D   26257.38732775  .00022417  00000-0  75319-3 0  9998
2 14818  74.0395 150.1291 0004842 230.4693 129.6083 15.30751002431265

Verfolge SL-8 DEB * in Echtzeit mit AllMySat

Download on the App Store